Hourly Weather Roundup
Issued by NWS Central Illinois

Home | Current Version | Previous Version | Text Only | Print | Product List | Glossary On
Versions: 1 2 3 4 5 6 7 8 9 10 11 12 13 14 15 16 17 18 19 20 21 22 23 24 25 26 27 28 29 30 31 32 33 34 35 36 37 38 39 40 41 42 43 44 45 46 47 48 49 50
364
NZUS43 KILX 100110
HWRILX

AREA WEATHER ROUNDUP
NATIONAL WEATHER SERVICE, LINCOLN IL
700 PM CST TUE FEB 09 2016


CITY           SKY/WX    TMP DP  RH WIND       PRES   REMARKS
BLOOMINGTON    FLURRIES  16   9  74 NW20      30.01R WCI  -1
CHAMPAIGN      FLURRIES  17  11  77 NW14      29.99R WCI   3
DANVILLE       CLOUDY    16  11  82 W10G17    29.95R WCI   4
DECATUR        LGT SNOW  17  11  77 NW13      30.03R WCI   4
EFFINGHAM      LGT SNOW  19  15  84 W16G23    30.06R WCI   4
FLORA          LGT SNOW  21  15  78 W12       30.07R WCI   9
GALESBURG      CLEAR     13   6  73 NW14      30.06R WCI  -2
JACKSONVILLE   CLEAR     18   9  66 W9        30.08S WCI   7
LACON          CLOUDY    15   6  68 NW14G25   30.03R WCI   0
LAWRENCEVILLE  CLOUDY    20  12  71 NW15      30.05R WCI   6
LITCHFIELD     PTCLDY    16   8  71 NW9       30.07R WCI   5
$$


CITY           SKY/WX    TMP DP  RH WIND       PRES   REMARKS
LINCOLN        LGT SNOW  18  12  78 NW8       30.04S WCI   8
MACOMB         CLEAR     15   7  71 NW21      30.10R WCI  -3
MATTOON        CLOUDY    17  10  74 NW21      30.01R WCI   0
MT CARMEL AP   FLURRIES  19  14  79 NW13      30.05R WCI   7
OLNEY-NOBLE AP FLURRIES  19  14  79 W14       30.06R WCI   6
PARIS          CLOUDY    17  14  88 NW7       30.01R WCI   7
PEORIA         LGT SNOW  15   7  70 NW10G20   30.05R WCI   2
PONTIAC        MIX PCPN  17  14  88 NW10      30.00R WCI   5
RANTOUL        LGT SNOW  19  15  84 W18G26    29.98S WCI   3
ROBINSON       CLOUDY    18  10  71 W13       30.05R WCI   5
SPRINGFIELD    CLOUDY    19   9  65 NW13      30.06R WCI   6
TAYLORVILLE    CLOUDY    18  10  73 NW14G24   30.06R WCI   4
$$

...REGIONAL REPORTS...


CITY           SKY/WX    TMP DP  RH WIND       PRES   REMARKS
CHICAGO O`HARE LGT SNOW  15   8  73 NW14      29.93R WCI   0
KANKAKEE       FLURRIES  18   9  68 NW10      29.96S WCI   6
MOLINE         CLEAR     14   3  61 NW10      30.07R WCI   1
MOUNT STERLING PTCLDY    15   6  67 NW14      30.08S WCI   0
MOUNT VERNON   CLOUDY    19  10  68 NW6       30.08R WCI  11
PITTSFIELD     PTCLDY    19   7  60 NW10      30.10S WCI   7
QUINCY         CLEAR     16   4  59 NW13      30.10R WCI   2
ROCKFORD       FLURRIES  15   6  67 NW10      30.00R WCI   2
$$


CITY           SKY/WX    TMP DP  RH WIND       PRES   REMARKS
BURLINGTON     PTCLDY    14   6  70 NW12G24   30.10R WCI   0
CEDAR RAPIDS   CLEAR     11   5  77 NW15      30.08R WCI  -5
DES MOINES     PTCLDY    17   7  64 NW14      30.18R WCI   3
KIRKSVILLE     CLEAR     18   3  52 NW8       30.15R WCI   8
OTTUMWA        CLOUDY    15   7  70 NW21      30.14R WCI  -2
ST LOUIS       MOCLDY    26  10  50 NW16      30.10R WCI  14
$$


CITY           SKY/WX    TMP DP  RH WIND       PRES   REMARKS
TERRE HAUTE    FLURRIES  18  11  74 NW10G20   30.00R WCI   6
EVANSVILLE     LGT SNOW  21  14  74 NW9G17    30.07R WCI  11
INDIANAPOLIS   FLURRIES  17  10  74 W13       29.93R WCI   4
LAFAYETTE      CLOUDY    15   9  76 W9        29.95R WCI   3
MADISON        CLOUDY    14   2  58 NW14G22   29.96R WCI  -1
MILWAUKEE      FLURRIES  17   8  67 NW13      29.91R WCI   4
$$






USA.gov is the U.S. government's official web portal to all federal, state and local government web resources and services.